St. Joseph, KS

1:22 PM CST on November 14, 2019 (GMT -0600)
Rosecrans Memorial

Weather History for KSTJ - September, 2019

Change the Weather History Date:

Sunday, September 22, 2019

  Actual Average Record
Temperature  
Mean Temperature 67 °F 64 °F  
Max Temperature 76 °F 77 °F 99 °F (1937)
Min Temperature 57 °F 51 °F 31 °F (1974)
Degree Days  
Heating Degree Days 0 4  
Month to date heating degree days 0 36  
Since 1 July heating degree days 0 41  
Cooling Degree Days 2 3  
Month to date cooling degree days 249 103  
Year to date cooling degree days 1393 1180  
Growing Degree Days 16 (Base 50)    
Moisture  
Dew Point 63 °F    
Average Humidity 91    
Maximum Humidity 100    
Minimum Humidity 82    
Precipitation  
Precipitation 1.29 in 0.09 in 2.57 in (1970)
Month to date precipitation 3.24 2.70  
Year to date precipitation 32.51 29.00  
Sea Level Pressure  
Sea Level Pressure 29.92 in    
Wind  
Wind Speed 6 mph (North)    
Max Wind Speed 18 mph    
Max Gust Speed 25 mph    
Visibility 6 miles    
Events Fog , Rain , Thunderstorm    
T = Trace of Precipitation, MM = Missing Value Source: NWS Daily Summary

Daily Weather History Graph

Daily Weather History Graph

Search for Another Location

Airport or City:

Astronomy

Sep. 22, 2019 Rise Set
Actual Time 7:07 AM CDT 7:17 PM CDT
Civil Twilight 6:40 AM CDT 7:43 PM CDT
Nautical Twilight 6:08 AM CDT 8:15 PM CDT
Astronomical Twilight 5:36 AM CDT 8:47 PM CDT
Moon No Moon Rise 3:12 PM CDT (9/22)
Length of Visible Light 13h 03m
Length of Day
12h 09m
Last Quarter, 44% of the Moon is Illuminated
Sep 22
Last Quarter
Sep 28
New
Oct 5
First Quarter
Oct 13
Full
Oct 21
Last Quarter

Hourly Weather History & Observations

Time (CDT) Temp. Dew Point Humidity Pressure Visibility Wind Dir Wind Speed Gust Speed Precip Events Conditions
12:53 AM 75.9 °F 69.1 °F 79% 29.85 in 10.0 mi South 12.7 mph - N/A   Mostly Cloudy
1:19 AM 75.9 °F 69.1 °F 79% 29.89 in 10.0 mi WSW 16.1 mph 25.3 mph N/A   Overcast
1:38 AM 69.1 °F 64.0 °F 84% 29.92 in 10.0 mi NNW 8.1 mph 17.3 mph 0.00 in Rain Light Rain
1:46 AM 66.9 °F 64.0 °F 90% 29.91 in 1.8 mi North 11.5 mph - 0.15 in Rain Heavy Rain
1:53 AM 66.9 °F 64.0 °F 90% 29.89 in 2.5 mi North 10.4 mph - 0.17 in Rain Light Rain
2:00 AM 66.0 °F 64.0 °F 93% 29.91 in 10.0 mi North 12.7 mph - 0.01 in Rain Light Rain
2:14 AM 66.0 °F 64.0 °F 93% 29.94 in 4.0 mi NW 15.0 mph 23.0 mph 0.05 in Rain , Thunderstorm Rain
2:16 AM 66.0 °F 63.0 °F 90% 29.95 in 2.5 mi NW 13.8 mph 23.0 mph 0.11 in Rain , Thunderstorm Heavy Thunderstorms and Rain
2:24 AM 64.9 °F 63.0 °F 93% 29.95 in 1.2 mi NNW 13.8 mph - 0.20 in Rain , Thunderstorm Heavy Thunderstorms and Rain
2:30 AM 64.9 °F 63.0 °F 93% 29.95 in 2.5 mi NNW 9.2 mph - 0.24 in Rain Rain
2:37 AM 64.9 °F 64.0 °F 97% 29.94 in 3.0 mi North 5.8 mph - 0.26 in Rain Rain
2:53 AM 64.9 °F 63.0 °F 93% 29.92 in 5.0 mi North 9.2 mph - 0.30 in Rain Light Rain
3:07 AM 64.9 °F 63.0 °F 93% 29.95 in 2.0 mi NNE 5.8 mph - 0.09 in Rain Heavy Rain
3:53 AM 64.9 °F 63.0 °F 93% 29.89 in 4.0 mi East 8.1 mph - 0.37 in Rain Rain
4:53 AM 64.9 °F 63.0 °F 93% 29.88 in 6.0 mi East 6.9 mph - 0.25 in Rain Light Rain
5:53 AM 64.9 °F 63.0 °F 93% 29.87 in 10.0 mi ESE 10.4 mph - 0.09 in Rain Light Rain
6:53 AM 66.0 °F 64.0 °F 93% 29.88 in 10.0 mi SE 9.2 mph - 0.02 in Rain Light Rain
7:07 AM 66.0 °F 64.0 °F 93% 29.90 in 7.0 mi SE 10.4 mph - 0.02 in Rain Light Rain
7:53 AM 64.9 °F 64.0 °F 97% 29.86 in 10.0 mi ESE 9.2 mph - 0.07 in Rain Light Rain
8:53 AM 66.0 °F 64.0 °F 93% 29.85 in 10.0 mi SE 6.9 mph 16.1 mph 0.00 in   Mostly Cloudy
9:05 AM 66.0 °F 64.0 °F 93% 29.87 in 10.0 mi SE 10.4 mph - N/A   Mostly Cloudy
9:53 AM 66.9 °F 64.0 °F 90% 29.85 in 10.0 mi SSE 8.1 mph - 0.00 in Rain Light Rain
10:33 AM 68.0 °F 64.0 °F 87% 29.87 in 10.0 mi Variable 6.9 mph - 0.00 in   Overcast
10:53 AM 68.0 °F 64.0 °F 87% 29.86 in 8.0 mi ENE 4.6 mph - 0.01 in Rain Light Rain
11:53 AM 69.1 °F 64.9 °F 87% 29.86 in 9.0 mi NNE 4.6 mph - 0.00 in   Overcast
12:53 PM 69.1 °F 66.0 °F 90% 29.84 in 10.0 mi East 4.6 mph - 0.00 in   Overcast
1:53 PM 69.1 °F 66.0 °F 90% 29.84 in 4.0 mi North 4.6 mph - N/A   Overcast
2:08 PM 69.1 °F 66.9 °F 93% 29.86 in 2.5 mi North 5.8 mph - 0.00 in Rain Light Rain
2:21 PM 69.1 °F 66.9 °F 93% 29.86 in 3.0 mi NNW 6.9 mph - 0.00 in   Overcast
2:49 PM 69.8 °F 66.2 °F 88% 29.85 in 2.5 mi NNE 5.8 mph - 0.00 in   Overcast
2:53 PM 69.1 °F 66.9 °F 93% 29.84 in 2.5 mi North 6.9 mph - 0.00 in   Overcast
3:00 PM 69.1 °F 66.9 °F 93% 29.86 in 4.0 mi North 5.8 mph - N/A   Overcast
3:13 PM 70.0 °F 66.9 °F 90% 29.86 in 10.0 mi NNW 3.5 mph - N/A   Overcast
3:28 PM 71.1 °F 66.9 °F 87% 29.86 in 10.0 mi WNW 3.5 mph - N/A   Overcast
3:53 PM 72.0 °F 66.9 °F 84% 29.86 in 7.0 mi NW 8.1 mph - N/A   Overcast
4:06 PM 69.1 °F 66.9 °F 93% 29.88 in 3.0 mi WNW 12.7 mph 19.6 mph 0.01 in Rain Light Rain
4:53 PM 71.1 °F 66.0 °F 84% 29.88 in 10.0 mi NW 15.0 mph 23.0 mph 0.01 in   Overcast
5:20 PM 71.1 °F 66.0 °F 84% 29.90 in 10.0 mi NW 13.8 mph - N/A   Overcast
5:29 PM 70.0 °F 64.9 °F 84% 29.90 in 10.0 mi NNW 16.1 mph - N/A   Overcast
5:53 PM 70.0 °F 64.9 °F 84% 29.90 in 10.0 mi NNW 9.2 mph - N/A   Mostly Cloudy
6:00 PM 70.0 °F 64.0 °F 81% 29.92 in 10.0 mi NNW 10.4 mph - N/A   Scattered Clouds
6:18 PM 69.1 °F 64.0 °F 84% 29.93 in 10.0 mi NW 10.4 mph - N/A   Mostly Cloudy
6:53 PM 69.8 °F 64.4 °F 83% 29.92 in 10.0 mi NNW 5.8 mph - N/A   Overcast
7:16 PM 66.9 °F 63.0 °F 87% 29.94 in 10.0 mi NNW 5.8 mph - N/A   Scattered Clouds
7:53 PM 64.0 °F 62.1 °F 93% 29.95 in 10.0 mi NNW 5.8 mph - N/A   Clear
8:53 PM 62.1 °F 60.1 °F 93% 29.98 in 10.0 mi Calm Calm - N/A   Clear
9:53 PM 60.1 °F 57.9 °F 93% 29.99 in 1.8 mi Calm Calm - N/A   Clear
10:01 PM 60.1 °F 57.9 °F 93% 30.01 in 3.0 mi Calm Calm - N/A   Clear
10:34 PM 59.0 °F 57.0 °F 93% 30.02 in 1.5 mi Calm Calm - N/A   Clear
10:53 PM 57.9 °F 57.0 °F 97% 30.02 in 1.0 mi Calm Calm - N/A   Clear
11:08 PM 57.9 °F 57.0 °F 97% 30.03 in 3.0 mi Calm Calm - N/A   Clear
11:13 PM 57.9 °F 55.9 °F 93% 30.03 in 1.0 mi Calm Calm - N/A   Mist
11:18 PM 57.9 °F 55.9 °F 93% 30.03 in 0.5 mi Calm Calm - N/A Fog Fog
11:23 PM 57.9 °F 57.0 °F 97% 30.03 in 0.8 mi Calm Calm - N/A   Clear
11:30 PM 59.0 °F 57.0 °F 93% 30.03 in 1.5 mi Calm Calm - N/A   Clear
11:34 PM 60.1 °F 57.9 °F 93% 30.03 in 3.0 mi SSW 3.5 mph - N/A   Clear
11:53 PM 59.0 °F 57.9 °F 96% 30.02 in 8.0 mi Calm Calm - N/A   Clear